Location: Newark
(51.2625°N, 13.3939°E)
Time: 19:35:18
(UTC+00:00)

Transit 2A Rocket - Pass Details

Date: 25 November 2019
Orbit: 594 x 909 km, 66.7° (Epoch: 12 December)

Event Time Altitude Azimuth Distance (km) Brightness Sun altitude
Exits shadow 03:49:03 47° 161° (SSE) 830 5.2 -25.9°
Drops below altitude 10° 03:52:21 10° 150° (SSE) 2,033 7.6 -25.4°
Sets 03:54:42 0° 149° (SSE) 2,981 8.5 -25.0°
